www.pogodaiklimat.ru

Погода и климат >> Архив погоды >> Индонезия >> Гунунгситоли


ПОГОДА в Гунунгситоли

  • Прогноз погоды в Гунунгситоли
  • Монитор погоды в Гунунгситоли

АРХИВ ПОГОДЫ в Гунунгситоли

Время (UTC), дата Ветер
(напр.,м/с)
 
Видим.   Явления Облачность Т
(С)
Тd
(С)
f
(%)
Тe
(С)
Тes
(С)
Комфортность P
(гПа)
Po
(гПа)
Тmin
(С)
Tmax
(С)
R
(мм)
R24
(мм)
S
(см)
00 18.06 штиль 0 7000 м 10/5 450 м
[Cb cap Ac As Ci fib]
+24.8 +23.8 94 +34 +34 очень
душно
1009.8 1008.8 +22.9 0.0
03 18.06 штиль 0 10 км 9/4 480 м
[Cu med, cong Ac As Ci fib]
+28.9 +25.9 84 +43 +49 опасность
перегрева
1011.3 1010.3
06 18.06 С 2 10 км 8/3 480 м
[Cu med, cong Ac As Ci fib]
+30.4 +25.7 76 +45 +53 опасность
перегрева
1009.5 1008.5
09 18.06 С 4 10 км 6/3 450 м
[Cb cap Ac As Ci fib]
+30.8 +25.1 72 +45 +47 опасность
перегрева
1007.8 1006.8
12 18.06 штиль 0 6000 м 9/4 500 м
[Sc Ac As Ci fib]
+28.8 +26.2 86 +44 +44 опасность
перегрева
1008.3 1007.3 +32.2
15 18.06 штиль 0 6000 м 8/8 500 м
[]
+26.4 +25.2 93 +38 +38 очень
душно
1009.8 1008.8
18 18.06 В 2 6000 м 6/4 500 м
[Sc Ac As Ci fib]
+26.0 +25.2 95 +37 +37 очень
душно
1009.7 1008.7
21 18.06 штиль 0 6000 м 8/4 500 м
[Sc Ac As Ci fib]
+25.2 +24.5 96 +35 +35 очень
душно
1008.7 1007.7
00 19.06 штиль 0 8000 м 9/4 500 м
[Sc Ac As Ci fib]
+24.2 +24.1 99 +33 +33 очень
душно
1009.3 1008.5 +24.2
03 19.06 Ю 2 10 км 8/4 500 м
[Sc Ac As Ci fib]
+30.8 +25.3 73 +45 +50 опасность
перегрева
1010.2 1009.3
06 19.06 СВ 6 10 км 5/3 480 м
[Cu med, cong Ac As Ci fib]
+31.4 +25.3 70 +45 +50 опасность
перегрева
1008.2 1007.3
09 19.06 СВ 3 8000 м гроза без осадков 6/4 450 м
[Cb cap Ac As Ci fib]
+29.6 +25.0 76 +42 +46 опасность
перегрева
1006.9 1005.9
12 19.06 штиль 0 6000 м {гроза} 6/3 480 м
[Cu med, cong Ac As Ci fib]
+26.8 +23.8 84 +37 +37 очень
душно
1007.6 1006.6 +33.2
15 19.06 штиль 0 6000 м 6/3 500 м
[Sc Ac As Ci fib]
+24.9 +24.5 98 +35 +35 очень
душно
1010.2 1009.2
18 19.06 Ю 2 6000 м 9/3 500 м
[Sc Ac As Ci fib]
+25.4 +24.2 93 +35 +35 очень
душно
1009.4 1008.4
21 19.06 штиль 0 6000 м 9/3 500 м
[Sc Ac As Ci fib]
+25.0 +24.2 95 +34 +34 очень
душно
1007.8 1006.8
00 20.06 штиль 0 7000 м слаб. ливневой дождь, в посл. час гроза 8/5 450 м
[Cb cap Ac As Ci fib]
+24.5 +24.4 99 +34 +34 очень
душно
1009.0 1008.1 +24.2 0.6
03 20.06 С 5 6000 м гроза, ливневой дождь 10/6 450 м
[Cb cap Ac As Ci fib]
+25.2 +25.0 99 +36 +37 очень
душно
1011.7 1010.9 2
06 20.06 штиль 0 7000 м в посл. час дождь {гроза} 10/6 450 м
[Cb cap Ac As Ci fib]
+27.3 +25.5 90 +40 +45 очень
душно
1009.9 1009.1 8
09 20.06 ЮЗ 3 8000 м 8/4 480 м
[Cu med, cong Ac As Ci fib]
+28.9 +24.7 78 +41 +44 опасность
перегрева
1007.7 1006.7
12 20.06 штиль 0 6000 м 8/5 450 м
[Cb cap Ac As Ci fib]
+27.0 +24.3 85 +38 +38 очень
душно
1008.7 1007.7 +30.3
15 20.06 З 2 6000 м 8/5 450 м
[Cu Sc Ac As Ci fib]
+25.6 +24.6 94 +36 +36 очень
душно
1010.5 1009.5
18 20.06 СЗ 3 6000 м слаб. дождь 8/4 450 м
[Cb cap Ac As Ci fib]
+25.0 +24.5 97 +35 +35 очень
душно
1009.9 1008.9 0.0
21 20.06 штиль 0 6000 м {дождь} 6/4 480 м
[Cu Sc Ac As Ci fib]
+24.7 +24.3 98 +34 +34 очень
душно
1008.9 1007.9 0.0
00 21.06 З 5 5000 м слаб. дождь {гроза} 10/6 450 м
[Cb cap Ac As]
+24.4 +24.0 98 +34 +34 очень
душно
1009.8 1008.8 +23.8 8
03 21.06 0 слаб. дождь н/о +24.3 1010.8 1009.8 5
06 21.06 З 3 8000 м слаб. дождь 8/6 450 м
[Cb cap Ac As Ci fib]
+27.2 +25.3 89 +39 +45 очень
душно
1009.7 1008.7 8
09 21.06 З 7 8000 м слаб. дождь 9/6 450 м
[Cb cap Ac As Ci fib]
+27.5 +25.4 88 +40 +41 очень
душно
1008.2 1007.4 0.4
12 21.06 штиль 0 7000 м {дождь} 9/5 450 м
[Cb cap Ac As Ci fib]
+25.5 +25.4 99 +37 +37 очень
душно
1009.1 1008.2 +28.3 3
15 21.06 штиль 0 4000 м слаб. дождь 10/6 450 м
[Cb cap Ac As Ci fib]
+24.4 +24.3 99 +34 +34 очень
душно
1011.0 1010.1 2
18 21.06 СЗ 5 3000 м сильн. дождь 10/6 450 м
[Cb cap Ac As Ci fib]
+24.2 +23.8 98 +33 +33 очень
душно
1010.4 1009.4 13
21 21.06 штиль 0 4000 м слаб. дождь 9/5 450 м
[Cb cap Ac As Ci fib]
+23.9 +23.5 98 +32 +32 очень
душно
1009.0 1008.0 9
00 22.06 СЗ 3 4000 м дождь 10/6 450 м
[Cb cap As op]
+23.5 +22.7 95 +31 +31 очень
душно
1010.3 1009.3 +23.5 18 58
03 22.06 штиль 0 7000 м слаб. дождь 10/6 450 м
[Cb cap As op]
+25.2 +23.4 90 +34 +35 очень
душно
1009.7 1008.7 6
06 22.06 штиль 0 10 км {дождь} 9/4 480 м
[Cu Sc Ac As Ci fib]
+28.2 +24.4 80 +40 +49 очень
душно
1008.7 1007.7 0.0
09 22.06 СВ 3 10 км 8/3 480 м
[Cu med, cong Ac As Ci fib]
+30.0 +25.7 78 +45 +47 опасность
перегрева
1007.1 1006.1
12 22.06 штиль 0 6000 м 8/4 500 м
[Sc Ac As Ci fib]
+27.6 +26.3 93 +42 +42 опасность
перегрева
1008.3 1007.3
15 22.06 штиль 0 5000 м гроза, ливневой дождь 9/6 450 м
[Cb cap Ac As Ci fib]
+24.0 +23.3 96 +32 +32 очень
душно
1011.0 1010.0 3
18 22.06 штиль 0 5000 м в посл. час дождь {гроза} 9/5 450 м
[Cb cap Ac As Ci fib]
+24.2 +24.0 99 +33 +33 очень
душно
1010.2 1009.4 0.7
21 22.06 штиль 0 5000 м 9/5 450 м
[Cb cap Ac As Ci fib]
+23.8 +23.7 99 +32 +32 очень
душно
1008.8 1007.9
00 23.06 СЗ 2 7000 м в посл. час дождь 9/4 450 м
[Cb cap Ac As Ci fib]
+23.4 +21.8 91 +32 +32 очень
душно
1009.5 1008.5 +23.4 4
03 23.06 З 2 4000 м слаб. дождь 10/5 450 м
[Cb cap As op]
+25.4 +23.4 89 +34 +36 очень
душно
1010.3 1009.3 1
06 23.06 С 4 9000 м в посл. час дождь 8/4 450 м
[Cb cap Ac As Ci fib]
+26.8 +24.7 88 +38 +43 очень
душно
1009.6 1008.6 1
09 23.06 С 2 8000 м {дождь} 8/4 480 м
[Cu med, cong Ac As Ci fib]
+28.4 +23.9 77 +39 +42 очень
душно
1007.3 1006.3 0.0
12 23.06 штиль 0 6000 м {дождь} 8/5 450 м
[Cb cap Ac As Ci fib]
+26.4 +25.2 93 +38 +38 очень
душно
1008.4 1007.4 0.0
15 23.06 штиль 0 6000 м 8/5 450 м
[Cb cap Ac As Ci fib]
+25.0 +24.0 94 +34 +34 очень
душно
1010.0 1009.0
18 23.06 Ю 2 5000 м мгла 6/3 500 м
[Sc Ac As Ci fib]
+24.1 +23.4 96 +32 +32 очень
душно
1010.3 1009.3
21 23.06 В 2 3000 м слаб. дождь 9/5 450 м
[Cb cap Ac As Ci fib]
+22.8 +22.0 95 +31 +31 очень
душно
1010.8 1009.8 7
00 24.06 штиль 0 10 км {дождь} 6/4 480 м
[Cu Sc Ac As Ci fib]
+22.6 +22.1 97 +30 +31 очень
душно
1010.8 1009.8 +22.6 0.5
03 24.06 СЗ 2 10 км 8/4 480 м
[Cu Sc Ac As Ci fib]
+27.4 +23.6 80 +37 +43 очень
душно
1011.1 1010.1
06 24.06 СВ 2 10 км 8/4 480 м
[Cu Sc Ac As Ci fib]
+29.6 +23.8 71 +41 +49 опасность
перегрева
1009.8 1008.8
09 24.06 штиль 0 7000 м 6/3 480 м
[Cu Sc Ac As Ci fib]
+29.3 +24.2 74 +41 +46 опасность
перегрева
1008.2 1007.2
12 24.06 штиль 0 6000 м 8/4 500 м
[Sc Ac As Ci fib]
+27.4 +25.6 90 +40 +40 очень
душно
1008.7 1007.7 +29.9
15 24.06 штиль 0 6000 м 8/3 500 м
[Sc Ac As Ci fib]
+25.6 +25.2 98 +37 +37 очень
душно
1010.8 1009.8
18 24.06 штиль 0 6000 м 8/4 500 м
[Sc Ac As Ci fib]
+24.8 +23.5 92 +33 +33 очень
душно
1010.4 1009.4
21 24.06 Ю 2 6000 м 8/4 500 м
[Sc As trans Cs]
+24.2 +23.8 98 +33 +33 очень
душно
1009.8 1008.8

 

Местоположение метеостанции Гунунгситоли (Индонезия): широта 1.50 долгота 97.63 высота над уровнем моря 6 м.

В архиве по умолчанию представлена погода в Гунунгситоли за последнюю неделю. Архивные данные за месяц целиком и за предыдущие месяцы, начиная с января 2011 года, Вы можете получить, выбрав интересующий диапазон дат из раскрывающегося списка и нажав кнопку "Ввод!".


*Определитесь, кто Вы:
робот инопланетянин человек

Внимание! Время в таблицах - всемирное. Для получения местного времени необходимо прибавить поправку, которая равна 7 ч.

Смотрите также архив погоды в соседних городах и на ближайших метеорологических станциях:

Погода в Сиболге (Индонезия) (139 км)
Погода в Медан Полония (Индонезия) (258 км)
Погода в Белаване (Индонезия) (282 км)
Погода в Меулабохе (Индонезия) (349 км)
Погода в Паданге (Индонезия) (402 км)
Погода в Лхоксёмаве (Индонезия) (418 км)
Погода в Пеканбару (Индонезия) (440 км)
Погода в Ситаване (Малайзия) (456 км)
Погода в Куала-Лумпуре (Малайзия) (471 км)
Погода в Куала-Лумпур аэропорту (Малайзия) (472 км)

Пояснения к столбцам:

Ветер - указаны скорость ветра в м/с - средняя за 10 мин, порывы в срок и между сроками (в фигурных скобках) и направление, откуда дует ветер: С - северный, СВ - северо-восточный, В - восточный, ЮВ - юго-восточный, Ю - южный, ЮЗ - юго-западный, З - западный, СЗ - северо-западный.
Видимость - горизонтальная дальность видимости в метрах или километрах. При видимости от 1 до 10 км при отсутствии осадков обычно наблюдается дымка, при ухудшении видимости до 1 км и менее - туман. В сухую погоду видимость может ухудшаться дымом, пылью или мглою.
Явления - указаны атмосферные явления, наблюдавшиеся в срок или в последний час перед сроком; фигурными скобками обозначены явления, наблюдавшиеся между сроками (за 1-3 часа до срока); квадратными скобками обозначены град или гололедные отложения с указанием их диаметра в мм.
Облачность - указаны через наклонную черту общая и нижняя облачность в баллах и высота нижней границы облаков в метрах; квадратными скобками обозначены формы облаков: Ci - перистые, Cs - перисто-слоистые, Cc - перисто-кучевые, Ac - высококучевые, As - высокослоистые, Sc - слоисто-кучевые, Ns - слоисто-дождевые, Cu - кучевые, Cb - кучево-дождевые. Подробнее классификацию облаков см. в Атласе облаков (PDF).
T - Температура воздуха - температура, измеренная на высоте 2 м над землей.
Td - Температура точки росы - температура, при понижении до которой содержащийся в воздухе водяной пар достигнет насыщения.
f - Относительная влажность воздуха - влажноcть воздуха, измеренная на высоте 2 м над землей.
Te - Эффективная температура - температура, которую ощущает одетый по сезону человек в тени. Характеристика душности погоды. При расчете учитывается влияние влажности воздуха и скорости ветра на теплоощущения человека.
Tes - Эффективная температура на солнце - температура, которую ощущает человек, с поправкой на солнечный нагрев. Характеристика знойности погоды. Зависит от высоты солнца над горизонтом, облачности и скорости ветра. Ночью, в пасмурную погоду, а также при ветре 12 м/с и более поправка равна нулю.
P - Атмосферное давление - приведенное к уровню моря атмосферное давление.
Po - Атмосферное давление - измеренное на уровне метеостанции атмосферное давление.
Tmin - Минимальная температура - минимум температуры воздуха на высоте 2 м над землей.
Tmax - Максимальная температура - максимум температуры воздуха на высоте 2 м над землей.
R - Количество осадков - Количество выпавших осадков за период времени, мм. При наведении курсора мыши на число - период времени, за который выпало указанное количество осадков.
R24 - Количество осадков - Количество выпавших осадков за 24 часа, мм.
S - Снежный покров - Высота снежного покрова, см. При наведении курсора мыши на число - состояние снежного покрова и степень покрытия местности в баллах.